This demonstration page uses our WeatherBlox Daily Observations layout. Learn more.

40.92945, -100.16068

Hourly Observations for March 25, 2019

Temp ( °F °C ) Dew Point ( °F °C ) Humidity (%) Winds ( mph kmh ) Pressure ( in mb ) Visibility ( mi km ) Precip ( " mm )
12:15 am 00:15 Cloudy 45 7.2 39 4 80 80 NNE 7 11 30.27 1025 10 16.09344 0 0
12:35 am 00:35 Cloudy 45 7.1 39 3.8 80 80 NNE 8 13 30.27 1025 10 16.09344 0 0
12:55 am 00:55 Cloudy 45 7 39 4 81 81 NNE 8 13 30.27 1025 10 16.09344 0 0
1:15 am 01:15 Cloudy 45 7 39 4.1 82 82 NNE 7 11 30.27 1025 10 16.09344 0 0
1:35 am 01:35 Cloudy 44 6.8 39 4.1 83 83 NNE 8 13 30.27 1025 10 16.09344 0 0
1:55 am 01:55 Cloudy 44 6.8 40 4.5 85 85 NNE 6 9 30.27 1025 10 16.09344 0 0
2:15 am 02:15 Cloudy 44 6.6 40 4.3 85 85 NNE 6 9 30.3 1026 10 16.09344 0 0
2:35 am 02:35 Cloudy 44 6.5 40 4.3 86 86 NNE 5 7 30.3 1026 10 16.09344 0 0
2:55 am 02:55 Cloudy 43 6.2 40 4.2 87 87 NNE 3 6 30.3 1026 10 16.09344 0 0
3:15 am 03:15 Cloudy 43 6.2 40 4.3 88 88 N 5 7 30.3 1026 10 16.09344 0 0
3:35 am 03:35 Cloudy 43 6.1 40 4.2 88 88 NE 5 7 30.3 1026 10 16.09344 0 0
3:55 am 03:55 Cloudy 43 6 39 4 87 87 NNE 5 7 30.3 1026 10 16.09344 0 0
4:15 am 04:15 Cloudy 43 6 39 4 87 87 NNE 3 6 30.3 1026 10 16.09344 0 0
4:35 am 04:35 Cloudy 43 6 39 4 87 87 N 3 6 30.3 1026 10 16.09344 0 0
4:55 am 04:55 Cloudy 42 5.7 39 3.7 87 87 N 5 7 30.33 1027 10 16.09344 0 0
5:15 am 05:15 Cloudy 42 5.6 39 3.7 88 88 NNE 6 9 30.33 1027 10 16.09344 0 0
5:35 am 05:35 Cloudy 42 5.5 38 3.5 87 87 NE 6 9 30.33 1027 10 16.09344 0 0
5:55 am 05:55 Cloudy 41 4.8 38 3.1 89 89 NNE 3 6 30.33 1027 7 11.265408 0 0
6:15 am 06:15 Partly Cloudy 39 4 37 2.5 90 90 NE 3 6 30.33 1027 7 11.265408 0 0
6:35 am 06:35 Mostly Cloudy with Mist and Fog 39 3.7 37 2.5 92 92 Calm 30.36 1028 5 8.04672 0 0
6:55 am 06:55 Cloudy 39 4.1 37 3 93 93 Calm 30.36 1028 7 11.265408 0 0
7:15 am 07:15 Cloudy 40 4.3 38 3.1 92 92 E 5 7 30.33 1027 7 11.265408 0 0
7:35 am 07:35 Cloudy with Mist and Fog 40 4.3 38 3.1 92 92 Calm 30.33 1027 5 8.04672 0 0
7:55 am 07:55 Cloudy with Mist and Fog 40 4.4 38 3.1 91 91 Calm 30.33 1027 4 6.437376 0 0
8:15 am 08:15 Cloudy with Mist and Fog 40 4.6 38 3.5 93 93 Calm 30.36 1028 4 6.437376 0 0
8:35 am 08:35 Cloudy with Mist and Fog 41 5 38 3.6 91 91 Calm 30.36 1028 4 6.437376 0 0
8:55 am 08:55 Cloudy with Mist and Fog 41 5 38 3.5 90 90 Calm 30.36 1028 4 6.437376 0 0
9:15 am 09:15 Cloudy with Mist and Fog 41 5 38 3.6 91 91 Calm 30.36 1028 5 8.04672 0 0
9:35 am 09:35 Cloudy with Mist and Fog 41 5 38 3.5 90 90 Calm 30.39 1029 5 8.04672 0 0
9:55 am 09:55 Cloudy with Mist and Fog 42 5.3 39 3.8 90 90 E 3 6 30.36 1028 5 8.04672 0 0
10:15 am 10:15 Cloudy with Mist and Fog 42 5.6 39 4 90 90 E 7 11 30.36 1028 5 8.04672 0 0
10:35 am 10:35 Cloudy with Mist and Fog 42 5.5 39 3.7 88 88 Calm 30.39 1029 5 8.04672 0 0
10:55 am 10:55 Cloudy 42 5.6 39 3.7 88 88 Calm 30.39 1029 7 11.265408 0 0
11:15 am 11:15 Cloudy 43 5.9 39 4.1 88 88 ENE 6 9 30.39 1029 7 11.265408 0 0
11:35 am 11:35 Cloudy 42 5.7 39 4 89 89 ENE 6 9 30.39 1029 7 11.265408 0 0
11:55 am 11:55 Cloudy 43 6.1 39 4.1 87 87 E 7 11 30.39 1029 7 11.265408 0 0
12:15 pm 12:15 Cloudy 43 6.2 39 4.1 87 87 E 6 9 30.39 1029 7 11.265408 0 0
12:35 pm 12:35 Cloudy 44 6.4 39 4 85 85 SE 3 6 30.39 1029 10 16.09344 0 0
12:55 pm 12:55 Cloudy 44 6.7 40 4.2 84 84 ESE 6 9 30.36 1028 10 16.09344 0 0
1:15 pm 13:15 Cloudy 45 7.3 40 4.4 82 82 E 8 13 30.36 1028 10 16.09344 0 0
1:35 pm 13:35 Cloudy 46 7.6 40 4.5 81 81 SE 7 11 30.36 1028 10 16.09344 0 0
1:55 pm 13:55 Cloudy 46 7.8 40 4.5 80 80 ESE 8 13 30.36 1028 10 16.09344 0 0
2:15 pm 14:15 Cloudy 48 8.8 41 5 77 77 ESE 7 11 30.33 1027 10 16.09344 0 0
2:35 pm 14:35 Cloudy 48 8.8 41 4.8 76 76 ESE 10 17 30.33 1027 10 16.09344 0 0
2:55 pm 14:55 Mostly Cloudy 49 9.7 42 5.3 74 74 SE 10 17 30.3 1026 10 16.09344 0 0
3:15 pm 15:15 Mostly Cloudy 50 9.9 42 5.4 74 74 ESE 9 15 30.3 1026 10 16.09344 0 0
3:35 pm 15:35 Cloudy 51 10.6 42 5.7 72 72 ESE 13 20 30.27 1025 10 16.09344 0 0
3:55 pm 15:55 Cloudy 51 10.5 42 5.7 72 72 ESE 12 19 30.27 1025 10 16.09344 0 0
4:15 pm 16:15 Mostly Cloudy 52 10.9 43 6 72 72 SE 13 20 30.27 1025 10 16.09344 0 0
4:35 pm 16:35 Partly Cloudy with Thunderstorms 53 11.7 43 6.3 70 70 SSE 12 19 30.27 1025 10 16.09344 0 0
4:55 pm 16:55 Partly Cloudy 53 11.7 43 5.9 68 68 SE 14 22 30.24 1024 10 16.09344 0 0
5:15 pm 17:15 Mostly Cloudy 53 11.9 43 6.1 68 68 SSE 14 22 30.24 1024 10 16.09344 0 0
5:35 pm 17:35 Partly Cloudy 53 11.6 43 6 69 69 SE 12 19 30.24 1024 10 16.09344 0 0
5:55 pm 17:55 Partly Cloudy 53 11.9 43 6.1 68 68 SE 10 17 30.24 1024 10 16.09344 0 0
6:15 pm 18:15 Mostly Cloudy 53 11.5 43 6.1 70 70 SSW 10 17 30.27 1025 10 16.09344 0 0
6:35 pm 18:35 Cloudy with Light Rain 44 6.7 38 3.5 80 80 NW 22 35 30.33 1027 0.75 1.207008 0.11 2.794
6:55 pm 18:55 Cloudy with Light Snow 44 6.6 41 5 90 90 NE 9 15 30.3 1026 1.25 2.01168 0.24 6.096
7:15 pm 19:15 Mostly Cloudy 43 6.3 40 4.5 88 88 ENE 10 17 30.3 1026 10 16.09344 0 0
7:35 pm 19:35 Partly Cloudy 44 6.6 41 4.9 89 89 E 7 11 30.3 1026 10 16.09344 0 0
7:55 pm 19:55 Partly Cloudy 44 6.5 40 4.7 88 88 SE 7 11 30.3 1026 10 16.09344 0 0
8:15 pm 20:15 Clear 43 5.9 40 4.4 90 90 S 7 11 30.33 1027 10 16.09344 0 0
8:35 pm 20:35 Mostly Cloudy 42 5.6 40 4.3 91 91 SSE 7 11 30.33 1027 10 16.09344 0 0
8:55 pm 20:55 Cloudy with Light Drizzle 43 6 41 4.8 92 92 S 6 9 30.3 1026 10 16.09344 0 0
9:15 pm 21:15 Cloudy 43 6 40 4.6 91 91 S 7 11 30.3 1026 10 16.09344 0 0
9:35 pm 21:35 Mostly Cloudy 42 5.6 40 4.5 93 93 SSE 7 11 30.33 1027 10 16.09344 0 0
9:55 pm 21:55 Cloudy 42 5.8 40 4.6 92 92 SSE 8 13 30.33 1027 10 16.09344 0 0
10:15 pm 22:15 Cloudy 43 6.1 40 4.5 90 90 SSE 7 11 30.36 1028 10 16.09344 0 0
10:35 pm 22:35 Cloudy 43 6.3 40 4.6 89 89 SSE 5 7 30.33 1027 10 16.09344 0 0
10:55 pm 22:55 Cloudy 43 6 40 4.2 88 88 SSE 6 9 30.36 1028 10 16.09344 0 0
11:15 pm 23:15 Cloudy 42 5.7 40 4.4 91 91 SSE 5 7 30.36 1028 10 16.09344 0 0
11:35 pm 23:35 Mostly Cloudy 42 5.8 40 4.3 90 90 SSE 6 9 30.36 1028 10 16.09344 0 0
11:55 pm 23:55 Partly Cloudy 42 5.5 39 4 90 90 ESE 5 7 30.36 1028 10 16.09344 0 0

Powered by AerisWeather